This demonstration page uses our WeatherBlox Daily Observations layout. Learn more.

39.29038, -76.61219

Hourly Observations for October 12, 2019

Temp ( °F °C ) Dew Point ( °F °C ) Humidity (%) Winds ( mph kmh ) Pressure ( in mb ) Visibility ( mi km ) Precip ( " mm )
12:54 am 00:54 undefined 61 16.1 44 6.7 54 54 undefined N/A 30.04 1017 N/A 0 0
1:54 am 01:54 undefined 59 15 44 6.7 58 58 undefined N/A 30.04 1017 N/A 0 0
2:54 am 02:54 undefined 57 13.9 45 7.2 64 64 undefined N/A 30.02 1017 N/A 0 0
3:54 am 03:54 undefined 57 13.9 45 7.2 64 64 undefined N/A 30.01 1016 N/A 0 0
4:54 am 04:54 undefined 56 13.3 45 7.2 67 67 undefined N/A 30 1016 N/A 0 0
5:54 am 05:54 undefined 56 13.3 45 7.2 67 67 undefined N/A 30 1016 N/A 0 0
6:54 am 06:54 undefined 55 12.8 45 7.2 69 69 undefined N/A 30.01 1016 N/A 0 0
7:54 am 07:54 undefined 57 13.9 44 6.7 62 62 undefined N/A 30.01 1016 N/A 0 0
8:54 am 08:54 undefined 59 15 45 7.2 60 60 undefined N/A 30.01 1016 N/A 0 0
9:54 am 09:54 undefined 61 16.1 46 7.8 58 58 undefined N/A 30.01 1016 N/A 0 0
10:54 am 10:54 undefined 63 17.2 49 9.4 60 60 undefined N/A 30.01 1016 N/A 0 0
11:54 am 11:54 undefined 67 19.4 51 10.6 57 57 undefined N/A 30.01 1016 N/A 0 0
12:54 pm 12:54 undefined 70 21.1 52 11.1 53 53 undefined N/A 29.98 1015 N/A 0 0
1:54 pm 13:54 undefined 70 21.1 52 11.1 53 53 undefined N/A 29.96 1014 N/A 0 0
2:54 pm 14:54 undefined 72 22.2 52 11.1 50 50 undefined N/A 29.96 1015 N/A 0 0
3:54 pm 15:54 undefined 70 21.1 53 11.7 55 55 undefined N/A 29.97 1015 N/A 0 0
4:54 pm 16:54 undefined 72 22.2 50 10 46 46 undefined N/A 29.97 1015 N/A 0 0
5:54 pm 17:54 undefined 70 21.1 53 11.7 55 55 undefined N/A 29.98 1015 N/A 0 0
6:54 pm 18:54 undefined 69 20.6 52 11.1 55 55 undefined N/A 30 1016 N/A 0 0
7:54 pm 19:54 undefined 67 19.4 52 11.1 59 59 undefined N/A 30.01 1016 N/A 0 0
8:54 pm 20:54 undefined 66 18.9 52 11.1 61 61 undefined N/A 30.02 1017 N/A 0 0
9:54 pm 21:54 undefined 64 17.8 52 11.1 65 65 undefined N/A 30.03 1017 N/A 0 0
10:54 pm 22:54 undefined 63 17.2 50 10 63 63 undefined N/A 30.04 1017 N/A 0 0
11:54 pm 23:54 undefined 63 17.2 49 9.4 60 60 undefined N/A 30.06 1018 N/A 0 0

Powered by AerisWeather